This is the latest recevied weather packets stored in our database for station/object JI1UWB-13. If no packets are shown the sender has not sent any weather packets the latest 10 day(s).
| Time | Temp. | Humidity | Pressure | Rain* | Wind** | Luminosity | Snow |
|---|---|---|---|---|---|---|---|
| 1777722916 | 21.67° C | 28% | 1011.6 hPa | 0 mm | - | - | - |
| 1777721718 | 21.67° C | 28% | 1011.3 hPa | 0 mm | - | - | - |
| 1777718759 | 22.22° C | 27% | 1010.4 hPa | 0 mm | - | - | - |
| 1777716338 | 22.78° C | 26% | 1010.2 hPa | 0 mm | - | - | - |
| 1777711558 | 25.56° C | 21% | 1009.2 hPa | 0 mm | - | - | - |
| 1777710917 | 26.11° C | 20% | 1009 hPa | 0 mm | - | - | - |
| 1777710319 | 26.11° C | 20% | 1008.9 hPa | 0 mm | - | - | - |
| 1777708539 | 27.78° C | 19% | 1008.6 hPa | 0 mm | - | - | - |
| 1777707337 | 27.78° C | 18% | 1008.3 hPa | 0 mm | - | - | - |
| 1777705517 | 29.44° C | 17% | 1007.9 hPa | 0 mm | - | - | - |
| 1777704318 | 30° C | 17% | 1007.8 hPa | 0 mm | - | - | - |
| 1777698323 | 29.44° C | 18% | 1006.4 hPa | 0 mm | - | - | - |
| 1777693517 | 28.33° C | 19% | 1006.3 hPa | 0 mm | - | - | - |
| 1777689917 | 27.22° C | 22% | 1005.5 hPa | 0 mm | - | - | - |
| 1777685718 | 26.11° C | 24% | 1004.6 hPa | 0 mm | - | - | - |
| 1777685116 | 26.11° C | 25% | 1004.7 hPa | 0 mm | - | - | - |
| 1777681519 | 23.89° C | 32% | 1004.1 hPa | 0 mm | - | - | - |
| 1777679739 | 23.33° C | 31% | 1004.2 hPa | 0 mm | - | - | - |
| 1777676118 | 21.11° C | 39% | 1003.3 hPa | 0 mm | - | - | - |
| 1777674320 | 20° C | 42% | 1003 hPa | 0 mm | - | - | - |
| 1777671319 | 19.44° C | 47% | 1002 hPa | 0 mm | - | - | - |
| 1777670717 | 18.89° C | 50% | 1001.9 hPa | 0 mm | - | - | - |
| 1777668316 | 15.56° C | 62% | 1001.3 hPa | 0 mm | - | - | - |
| 1777662916 | 13.33° C | 83% | 999.1 hPa | 0 mm | - | - | - |
| 1777659319 | 13.89° C | 79% | 997.4 hPa | 0 mm | - | - | - |
* Rain latest hour (hover to see other rain measurements)
** Current wind speed in m/s (hover to see current wind gust speed)